Montauk, NY

9:51 PM EDT on September 23, 2017 (GMT -0400)
Montauk

Weather History for KMTP - February, 2014

Change the Weather History Date:

Saturday, February 22, 2014

  Actual Average (KHTO) Record (KHTO)
Temperature  
Mean Temperature 46 °F -  
Max Temperature 50 °F 43 °F 59 °F (1954)
Min Temperature 41 °F 28 °F - (2008)
Degree Days  
Heating Degree Days 20    
Moisture  
Dew Point 29 °F    
Average Humidity 56    
Maximum Humidity 70    
Minimum Humidity 32    
Precipitation  
Precipitation 0.00 in - - ()
Sea Level Pressure  
Sea Level Pressure 30.00 in    
Wind  
Wind Speed 8 mph (SW)    
Max Wind Speed 15 mph    
Max Gust Speed 26 mph    
Averages and records for this station are not official NWS values.
T = Trace of Precipitation, MM = Missing Value Source: NWS Daily Summary

Daily Weather History Graph

Daily Weather History Graph

Search for Another Location

Airport or City:

Trip Planner

Search our weather history database for the weather conditions in past years. The results will help you decide how hot, cold, wet, or windy it might be!

Date:

Astronomy

Feb. 22, 2014 Rise Set
Actual Time 6:32 AM EST 5:30 PM EST
Civil Twilight 6:04 AM EST 5:58 PM EST
Nautical Twilight 5:32 AM EST 6:30 PM EST
Astronomical Twilight 5:00 AM EST 7:02 PM EST
Moon 12:25 AM EST (2/22) 10:37 AM EST (2/22)
Length of Visible Light 11h 53m
Length of Day
10h 57m
Waning Gibbous, 50% of the Moon is Illuminated
Feb 22
Waning Gibbous
Feb 22
Last Quarter
Mar 1
New
Mar 8
First Quarter
Mar 16
Full

Hourly Weather History & Observations

Time (EST) Temp. Windchill Dew Point Humidity Pressure Visibility Wind Dir Wind Speed Gust Speed Precip Events Conditions
12:54 AM 42.1 °F 38.4 °F 33.1 °F 70% 29.93 in - WSW 5.8 mph - N/A   Unknown
1:54 AM 43.0 °F 39.5 °F 33.1 °F 68% 29.94 in - WSW 5.8 mph - N/A   Unknown
2:54 AM 41.0 °F 38.0 °F 32.0 °F 70% 29.94 in - WSW 4.6 mph - N/A   Unknown
3:54 AM 42.1 °F 38.4 °F 30.9 °F 65% 29.96 in - SW 5.8 mph - N/A   Unknown
4:54 AM 41.0 °F 38.0 °F 30.0 °F 65% 29.98 in - SSW 4.6 mph - N/A   Unknown
5:54 AM 41.0 °F 35.8 °F 30.0 °F 65% 29.99 in - SW 8.1 mph - N/A   Unknown
6:54 AM 41.0 °F 35.8 °F 30.0 °F 65% 30.01 in - SW 8.1 mph - N/A   Unknown
7:54 AM 43.0 °F 38.8 °F 28.0 °F 56% 30.03 in - WSW 6.9 mph - N/A   Unknown
8:54 AM 46.0 °F 41.9 °F 26.1 °F 46% 30.04 in - WSW 8.1 mph - N/A   Unknown
9:54 AM 46.9 °F - 24.1 °F 41% 30.05 in - WSW 10.4 mph - N/A   Unknown
10:54 AM 50.0 °F - 21.0 °F 32% 30.05 in - SW 9.2 mph - N/A   Unknown
11:54 AM 48.9 °F - 26.1 °F 41% 30.03 in - SSW 9.2 mph 16.1 mph N/A   Unknown
12:54 PM 48.9 °F - 24.1 °F 38% 30.02 in - SW 11.5 mph 20.7 mph N/A   Unknown
1:54 PM 48.0 °F - 25.0 °F 41% 29.99 in - SSW 12.7 mph 20.7 mph N/A   Unknown
2:54 PM 46.0 °F 39.6 °F 30.9 °F 56% 29.99 in - SSW 15.0 mph 23.0 mph N/A   Unknown
4:54 PM 45.0 °F 38.2 °F 32.0 °F 60% 29.98 in - SSW 15.0 mph 26.5 mph N/A   Unknown
5:54 PM 45.0 °F 38.5 °F 32.0 °F 60% 30.00 in - SW 13.8 mph 25.3 mph N/A   Unknown
6:54 PM 45.0 °F 39.3 °F 30.9 °F 58% 30.01 in - SW 11.5 mph 24.2 mph N/A   Unknown
7:54 PM 45.0 °F 38.9 °F 30.0 °F 56% 30.01 in - SW 12.7 mph 23.0 mph N/A   Unknown
8:54 PM 46.0 °F 40.2 °F 30.9 °F 56% 30.03 in - SW 12.7 mph 24.2 mph N/A   Unknown
9:54 PM 46.0 °F 40.6 °F 32.0 °F 58% 30.04 in - SW 11.5 mph 19.6 mph N/A   Unknown
10:54 PM 46.9 °F - 30.9 °F 54% 30.03 in - SW 13.8 mph 25.3 mph N/A   Unknown
11:54 PM 46.0 °F 40.6 °F 32.0 °F 58% 30.04 in - SW 11.5 mph 18.4 mph N/A   Unknown